Theta_e
314 313 312 313 313 313 313 312 310 308 306 305 305 306 305 304 303 303 304 304 305 305 305 305 305 306 306 307 306 306 306 307 307 307 307 307 307 307 306 306 306 306 305 306 305 305 307 307 310 313 314 315 312 311 316 317 315 314 313 313 313 312 311 311 312 312 311 311 311 312 313 314 313 311 311 312 312 312 312 312 311 310 311 313 314
317 315 313 313 313 313 313 313 311 309 307 306 305 306 306 305 304 303 304 304 304 304 305 305 304 305 306 306 306 306 306 306 306 306 306 306 306 306 306 306 306 305 305 305 305 305 307 308 310 312 313 315 313 311 316 316 315 314 312 312 312 311 311 311 312 310 309 309 309 311 312 312 312 310 310 310 310 309 309 309 308 307 307 308 309
318 317 315 314 313 313 313 313 312 310 308 307 305 305 306 305 304 303 304 303 303 304 304 304 304 304 305 305 305 305 305 305 306 306 306 306 306 306 306 306 305 305 305 305 305 304 305 306 308 311 313 315 314 313 315 315 315 314 312 312 312 311 311 312 312 311 310 309 309 310 311 311 310 309 309 309 309 308 308 308 307 306 305 305 305
318 317 317 316 314 313 313 313 313 311 309 307 306 304 305 305 304 303 303 302 302 303 303 304 304 304 304 304 305 305 305 305 305 305 305 305 306 306 305 305 305 305 305 304 304 304 304 304 304 308 311 313 315 314 314 315 314 313 312 312 312 311 310 311 312 311 310 310 310 310 310 310 309 307 307 307 308 308 308 308 307 306 305 304 304
320 319 319 318 316 315 314 314 314 312 309 308 306 305 304 305 305 303 303 302 302 302 303 303 304 304 303 304 304 304 304 304 304 305 305 305 305 305 305 305 305 305 305 304 304 304 303 303 302 304 308 311 314 314 314 315 314 313 312 311 312 311 310 311 311 311 311 311 310 310 309 309 308 307 305 305 305 306 306 306 306 305 304 304 303
323 323 322 321 319 318 316 315 314 313 311 309 308 306 304 304 305 304 303 302 302 302 302 303 303 303 303 303 303 304 304 304 304 304 304 305 305 305 305 305 305 305 305 304 304 304 303 302 302 302 304 307 312 314 313 313 313 312 311 311 311 311 310 311 311 311 311 311 310 309 309 308 307 306 305 304 304 304 305 306 305 304 304 304 303
325 325 324 323 322 320 319 316 316 314 312 311 310 308 305 304 304 304 303 302 302 302 302 302 302 303 303 303 303 303 304 304 304 304 303 304 304 304 305 305 305 305 305 304 304 304 303 302 302 301 302 304 309 312 312 312 312 311 311 311 310 311 310 310 311 310 310 310 309 309 308 307 306 305 304 303 303 303 304 304 304 304 304 304 304
326 326 326 325 324 322 321 319 317 316 314 313 312 310 307 305 304 304 303 302 302 301 301 301 301 302 302 302 303 303 303 303 303 303 303 303 304 304 304 304 304 304 304 304 304 303 303 302 301 300 300 302 305 308 309 310 310 309 310 310 310 310 310 310 309 309 308 308 308 307 307 307 305 304 302 302 301 301 302 302 301 301 301 301 302
326 326 326 326 325 324 322 321 320 319 317 316 314 312 310 307 304 303 303 302 302 301 301 301 301 301 302 302 302 302 302 303 303 303 303 303 303 303 303 303 304 304 304 304 304 303 303 302 301 300 299 301 303 303 304 306 307 307 308 309 310 309 309 309 308 307 307 306 306 306 305 305 305 302 301 300 300 300 300 300 300 300 300 300 300
326 326 326 325 325 324 323 322 322 321 320 319 317 315 312 309 306 304 303 302 302 301 301 301 300 300 301 301 301 302 302 302 302 302 302 302 302 302 302 303 303 303 303 303 303 303 303 302 301 300 299 300 301 301 301 301 302 304 306 308 308 308 308 307 307 306 305 304 304 304 303 303 302 301 300 299 299 299 299 300 300 300 300 300 300
325 325 325 325 325 324 324 323 323 322 321 320 318 317 315 312 309 305 303 302 302 301 300 300 300 299 300 300 301 301 301 301 302 302 302 302 302 302 302 302 302 303 303 303 303 303 302 302 301 300 299 299 298 299 299 298 298 300 304 305 305 306 307 305 304 304 303 302 302 302 301 300 300 300 300 300 299 299 299 300 300 300 299 299 299
323 323 324 323 323 323 323 323 322 322 322 320 319 318 316 314 312 308 304 302 301 301 299 299 299 299 299 299 300 300 301 301 301 301 301 301 301 301 302 302 302 302 302 302 302 302 302 301 300 300 299 298 297 297 297 296 297 298 300 303 305 307 307 304 302 301 300 300 299 299 298 299 300 300 299 299 299 299 299 299 298 299 299 299 299
322 322 322 321 321 321 321 321 322 322 321 321 320 319 317 316 314 310 306 303 302 300 300 299 298 298 298 299 299 300 300 301 301 301 301 301 301 301 301 301 301 302 302 302 302 302 302 301 300 300 299 298 297 296 296 295 296 297 298 300 306 308 306 304 302 300 298 297 296 296 297 298 299 299 298 298 298 298 298 298 298 298 298 299 299
320 320 319 318 318 318 319 320 320 320 320 320 320 319 318 317 315 313 309 305 302 301 300 299 298 298 298 298 299 299 299 300 300 301 301 301 301 301 301 301 301 301 301 301 301 302 302 301 300 299 299 298 297 296 296 295 295 296 296 297 303 308 307 304 302 300 298 296 296 295 295 296 297 297 297 297 297 297 297 297 298 298 298 299 299
317 316 315 314 315 316 317 318 318 319 319 319 319 319 318 318 316 315 312 308 304 301 300 299 299 298 298 298 298 298 298 299 300 300 300 301 301 301 301 301 301 301 301 301 301 302 302 301 301 299 298 298 297 296 295 295 295 294 295 296 300 306 307 305 302 298 297 297 295 295 295 295 296 296 296 296 297 297 297 297 298 299 298 298 299
312 311 310 311 313 315 315 316 317 317 317 318 318 318 318 318 317 316 314 310 306 303 301 300 299 298 298 298 298 298 298 299 300 300 300 300 300 300 301 301 301 301 301 301 301 301 302 302 301 300 299 298 297 296 295 295 295 294 294 294 297 303 305 304 301 297 296 296 295 295 294 295 295 295 296 296 296 297 298 298 298 298 298 298 298
306 306 306 308 310 312 313 314 314 315 315 316 316 316 317 317 316 316 314 312 309 306 302 300 299 299 298 298 298 298 298 299 299 299 299 300 300 300 300 300 301 300 300 301 301 301 302 302 302 301 300 299 298 296 296 295 295 295 294 294 295 298 301 300 298 296 296 295 295 294 294 294 295 295 295 296 296 297 298 298 297 297 297 297 298
304 304 304 305 306 308 310 312 312 313 313 314 314 315 315 315 315 314 313 312 311 307 304 302 300 298 298 298 298 298 299 299 299 299 299 299 299 300 300 300 300 300 300 300 300 301 301 302 302 302 301 301 300 297 296 295 295 295 294 294 294 296 297 297 297 296 295 295 295 294 294 294 294 294 294 295 295 295 297 297 296 297 296 296 297
303 303 303 303 304 304 306 308 310 311 311 312 312 313 313 313 313 313 312 311 310 307 305 303 301 299 298 298 298 297 298 298 299 299 299 299 299 300 300 300 300 300 301 301 301 301 301 302 302 302 302 302 302 300 297 296 296 295 295 294 294 294 295 295 295 295 295 295 294 293 294 294 294 294 294 295 295 295 295 296 296 296 296 296 296
302 302 302 302 303 303 303 304 306 308 309 310 310 310 311 311 311 311 310 309 308 307 307 305 302 301 299 298 297 297 297 297 298 298 299 299 299 299 300 300 300 301 301 301 301 301 301 302 301 301 301 302 302 302 300 298 297 296 295 295 294 294 294 294 294 294 294 294 294 293 293 294 294 294 294 294 294 295 295 295 295 295 296 296 296
302 302 302 302 302 302 302 302 303 304 305 307 308 308 308 309 309 309 309 308 307 306 306 305 303 302 300 299 298 297 297 297 297 298 298 298 299 299 299 300 300 300 301 301 301 301 302 301 301 300 301 301 302 302 301 300 298 297 296 295 295 294 294 294 294 294 294 294 294 294 293 293 294 293 294 294 294 294 295 295 295 295 295 296 296
302 301 301 301 301 301 301 301 301 302 302 303 304 305 306 306 307 307 307 307 306 306 305 304 303 302 300 299 298 297 297 297 297 297 298 298 299 299 299 299 299 300 300 300 301 301 301 301 301 301 301 301 301 302 301 301 299 298 297 296 295 295 294 294 294 294 294 294 294 294 293 293 294 293 293 294 294 294 294 294 295 295 295 295 295
301 301 301 301 301 300 300 300 300 300 301 301 301 302 303 303 304 305 305 305 305 305 304 304 303 302 301 299 298 297 297 297 297 297 297 298 298 299 299 299 299 299 299 300 300 300 301 300 300 300 300 300 301 301 301 301 300 299 298 297 296 295 295 294 294 294 294 294 294 294 294 294 294 293 293 293 294 294 294 294 294 295 295 295 295
301 301 301 301 301 301 300 300 299 299 299 300 300 300 300 301 301 302 303 303 304 304 303 303 302 302 301 300 299 298 297 297 296 297 297 297 298 298 298 299 299 299 299 299 299 299 300 300 300 300 300 300 300 300 301 300 300 299 298 297 296 295 295 294 294 294 294 294 294 294 294 294 294 293 293 293 293 294 294 294 294 294 294 295 295
301 301 301 301 301 301 301 300 299 299 298 299 299 300 299 299 299 300 300 301 302 302 302 302 301 300 300 299 299 298 297 297 296 296 296 297 297 298 298 299 299 299 299 299 299 299 299 300 299 299 299 299 299 300 300 300 300 300 299 298 297 296 295 294 294 294 294 294 294 294 294 294 293 293 293 293 293 294 294 294 294 294 294 294 295
300 300 301 301 301 301 301 301 300 299 299 298 299 299 299 299 299 299 299 299 300 300 301 301 301 300 299 298 298 298 298 297 296 296 296 296 297 297 298 298 299 299 299 299 299 299 299 299 299 299 299 299 299 299 300 300 300 300 299 298 297 296 295 294 294 294 294 294 293 294 294 294 293 293 293 294 294 294 294 294 295 295 295 295 295
299 299 299 300 300 300 300 301 301 301 300 299 299 299 298 299 299 299 299 299 298 299 299 300 300 300 299 299 298 298 298 297 297 296 296 296 296 296 297 298 298 298 298 299 299 299 299 299 299 299 299 299 299 299 299 299 299 299 299 298 297 296 295 294 294 293 293 293 293 293 293 293 293 293 293 294 294 294 295 295 295 295 296 295 295
296 296 296 297 298 298 299 299 300 300 300 300 300 299 299 298 298 298 299 298 298 298 298 298 298 299 299 299 298 298 298 297 297 296 296 296 296 296 296 297 297 298 298 298 298 298 298 298 299 298 299 299 299 299 299 299 299 299 299 299 298 297 295 294 294 293 293 293 293 293 293 293 293 293 294 294 295 295 295 295 295 296 296 295 295
293 293 293 293 293 294 295 296 297 298 299 299 300 300 299 299 299 298 298 298 298 298 298 297 297 297 298 298 298 298 298 298 297 297 296 296 296 296 296 296 296 297 297 297 297 298 298 298 298 298 298 298 298 298 298 298 299 299 299 299 298 298 296 294 293 293 293 293 292 292 293 293 293 293 294 294 295 295 296 296 295 295 295 294 294
291 291 291 290 290 291 291 292 293 294 295 297 298 299 299 299 299 299 298 297 297 297 297 297 297 297 297 297 297 297 297 297 297 297 296 296 295 296 296 296 296 296 296 297 297 297 297 297 297 297 298 298 298 298 298 298 298 298 298 298 298 298 297 295 293 293 292 292 292 292 292 293 293 293 294 295 295 296 296 296 296 295 294 294 293
290 290 290 290 290 289 289 289 289 290 290 292 293 295 297 298 299 299 298 297 297 297 297 296 296 296 296 296 296 296 296 297 297 297 296 296 296 295 296 296 296 296 296 296 296 296 296 297 297 297 297 297 298 298 298 298 298 298 298 298 298 297 296 295 293 293 292 292 292 292 292 292 293 293 294 295 295 296 296 296 296 295 294 293 293
288 289 289 289 289 289 289 289 289 289 289 289 289 290 291 293 295 297 298 298 297 297 297 296 296 296 295 296 296 296 296 296 296 296 296 296 296 295 295 295 296 296 296 296 296 296 296 296 296 296 297 297 297 298 298 298 298 298 298 297 297 297 296 295 294 293 292 292 292 292 292 292 293 293 294 295 295 296 296 296 296 295 294 293 293
287 287 287 287 288 288 288 288 288 288 288 288 288 288 288 289 290 292 294 295 297 298 298 297 296 295 295 295 295 295 295 295 296 296 296 296 296 296 295 295 295 295 296 296 296 296 296 296 296 296 297 297 297 297 297 297 297 297 297 297 297 297 297 296 295 293 292 291 291 291 292 292 293 293 294 294 295 296 296 296 296 296 295 293 292
287 287 287 287 287 287 287 287 287 288 288 288 288 288 288 288 288 288 289 290 292 294 296 297 297 296 295 294 295 295 294 294 295 295 295 296 296 296 296 295 295 295 295 295 296 296 296 296 296 296 297 297 297 297 297 297 297 297 297 297 297 297 297 296 295 294 292 291 291 291 291 292 292 293 294 294 295 296 296 296 296 296 294 293 292
287 287 287 287 287 287 287 287 287 287 287 287 287 287 288 288 288 287 287 287 288 289 291 293 295 296 296 296 295 294 293 294 294 294 294 295 295 296 296 295 295 295 295 295 295 295 296 296 296 297 297 297 297 297 297 297 297 297 297 297 297 297 296 296 296 294 293 291 291 291 291 292 292 293 293 294 294 295 296 296 296 295 294 293 292
287 287 287 287 287 287 287 287 287 287 287 287 287 287 287 287 287 287 287 287 287 287 287 288 290 292 294 295 296 296 294 294 294 293 293 294 294 295 296 296 295 295 295 295 294 295 295 295 296 296 297 297 297 297 297 296 296 296 296 297 296 296 296 296 296 295 293 292 291 290 291 291 292 292 293 293 294 294 295 296 296 296 294 293 292
287 286 286 286 286 286 286 286 286 286 286 286 287 286 286 286 286 286 287 287 287 287 287 287 287 287 289 291 292 294 294 295 295 294 293 293 293 294 295 295 295 295 295 294 294 294 294 294 294 295 296 296 296 296 296 296 296 296 296 296 296 296 296 296 295 295 293 292 291 290 290 291 291 292 292 293 293 294 294 295 296 296 295 293 292
286 286 286 286 286 285 286 286 286 286 286 286 286 286 286 286 286 286 286 286 286 286 287 287 287 286 286 287 288 289 291 293 294 295 294 293 292 292 293 294 294 294 295 294 294 294 294 294 293 293 294 295 295 295 296 295 296 295 296 296 296 296 295 295 295 295 294 292 291 291 290 290 291 292 292 292 293 293 294 294 295 295 295 294 293
286 286 286 286 285 285 285 285 285 285 285 285 285 285 286 286 286 286 286 286 286 286 286 286 286 286 286 286 286 287 287 289 290 292 294 294 294 293 292 292 293 293 293 294 294 294 294 294 293 293 293 293 294 294 295 295 295 295 295 295 296 296 296 296 296 295 295 293 292 291 290 290 290 291 291 292 292 293 293 294 294 295 295 294 293
285 285 285 285 285 285 285 285 285 285 285 285 285 285 285 285 285 285 285 286 286 286 286 286 286 286 286 286 286 286 286 286 287 288 289 292 293 294 293 292 291 292 292 293 293 293 293 293 293 293 292 292 293 293 294 294 294 294 294 295 295 296 296 296 296 296 295 295 293 292 291 290 290 290 291 291 292 292 293 293 294 294 294 294 293
285 285 285 285 285 285 285 285 285 285 285 285 285 285 285 285 285 285 285 285 285 285 286 286 286 286 286 286 286 286 286 286 286 286 287 288 290 292 294 293 291 291 291 292 292 292 293 293 293 292 292 292 292 292 293 293 294 294 294 294 295 295 295 296 296 296 296 295 294 292 291 290 290 290 291 291 291 292 292 293 293 293 294 294 293
285 285 285 285 285 285 285 285 285 285 285 285 285 285 284 284 284 284 284 284 284 284 285 285 285 286 286 286 286 286 286 285 285 286 286 286 287 288 291 292 293 292 291 291 291 291 292 292 292 292 291 291 292 292 292 293 293 293 294 294 294 295 295 295 295 295 295 295 294 293 292 291 290 290 291 291 291 291 292 292 293 293 293 293 293
284 284 284 284 284 284 284 284 284 284 284 285 285 284 284 284 283 283 283 284 284 284 284 284 284 285 285 285 286 285 286 286 285 285 285 286 286 286 287 289 292 293 292 291 291 291 291 291 291 291 291 291 291 291 291 292 292 293 293 293 294 294 294 295 295 295 295 295 294 294 293 292 291 290 290 291 291 291 291 292 292 292 293 292 292
283 283 283 284 284 284 284 284 284 284 284 284 284 284 284 284 283 283 283 283 283 283 283 283 284 284 284 284 285 285 285 285 286 285 285 285 285 286 286 286 288 291 292 292 292 291 290 291 291 291 291 291 291 291 291 291 291 292 292 293 293 293 294 295 295 295 295 295 295 294 294 293 292 291 290 290 291 291 291 291 291 292 292 292 291
282 282 283 283 283 283 283 283 284 284 284 284 284 284 284 283 283 282 282 282 282 282 282 283 283 283 284 284 284 284 285 285 285 285 285 285 285 285 285 285 286 287 290 292 293 292 291 290 290 291 291 291 291 290 290 290 291 291 292 292 292 293 293 294 294 295 295 295 295 295 295 294 293 291 291 291 290 291 291 291 291 291 291 291 291
281 281 282 282 282 282 283 282 282 283 284 284 284 283 283 282 282 281 280 280 280 281 281 282 282 282 283 283 283 283 284 284 284 285 285 285 285 285 285 285 285 285 286 288 291 292 292 291 290 291 291 291 291 290 290 290 290 290 291 291 292 292 292 293 293 294 294 295 295 295 295 294 294 292 292 291 291 291 291 290 291 291 291 291 291
280 280 280 280 281 281 281 281 281 281 282 283 282 281 280 280 279 278 278 278 279 279 280 280 281 281 281 282 282 283 283 283 284 284 284 285 285 285 285 285 285 285 285 286 287 290 291 292 291 292 292 291 290 290 290 290 290 290 290 290 291 291 292 292 292 293 293 294 294 294 294 295 294 294 293 293 291 291 290 290 290 290 291 291 290
279 279 279 279 279 279 280 279 278 279 281 281 280 279 277 277 276 276 276 277 277 278 278 279 279 280 280 281 281 282 282 283 283 283 284 284 285 285 285 285 285 285 285 285 285 286 288 291 292 293 293 292 290 290 290 290 289 289 289 289 290 290 290 291 291 291 292 292 293 293 293 293 294 294 294 293 291 291 290 290 290 290 290 290 290
278 278 278 278 278 278 278 277 276 276 278 279 278 276 274 274 274 274 275 275 275 276 276 277 277 278 278 279 279 280 281 282 282 282 283 283 284 284 284 285 285 285 285 285 285 285 286 288 290 292 293 293 291 290 290 289 289 289 289 288 289 289 289 289 290 290 291 291 292 292 292 292 293 294 293 292 292 291 290 290 289 289 290 290 290
277 277 276 276 276 276 275 275 274 273 274 275 274 273 273 272 272 272 272 273 273 273 274 274 275 275 276 277 277 278 279 280 281 282 282 282 283 284 284 284 284 284 285 285 285 285 285 286 287 289 291 292 292 291 290 289 289 289 288 288 288 288 288 289 289 289 290 290 291 291 290 291 292 291 291 291 290 290 290 289 289 289 289 289 289
276 275 274 273 274 274 273 272 272 271 272 273 273 272 271 271 270 270 270 271 271 272 272 272 273 273 274 274 275 276 277 278 280 282 282 283 283 283 283 284 284 284 285 285 284 284 285 285 286 287 289 291 292 291 291 290 289 289 289 288 288 288 288 288 289 288 288 289 290 290 290 291 291 289 289 290 289 289 289 288 288 288 288 288 288
Wind_Speed
32 30 29 28 27 26 25 23 21 21 23 22 21 19 19 19 20 21 20 20 18 17 17 16 15 14 13 12 11 10 9 9 8 7 8 9 9 9 10 10 11 11 12 12 12 10 9 7 5 5 4 4 3 3 5 6 4 5 5 3 3 3 3 3 4 7 8 7 6 5 4 5 7 8 7 8 9 9 8 9 9 9 10 11 9
33 32 31 30 29 28 27 26 23 23 24 24 22 21 20 21 22 22 22 21 19 18 18 18 16 15 15 14 13 12 11 10 9 8 8 9 9 9 9 10 11 11 12 12 12 11 10 8 7 7 6 5 3 4 7 9 8 8 5 3 3 3 3 3 4 7 7 7 7 6 6 6 7 7 7 8 10 10 10 10 11 11 12 13 13
33 33 32 31 30 29 28 28 26 24 24 24 24 23 22 22 23 23 23 22 20 20 20 20 18 17 16 16 15 14 13 12 11 10 9 10 10 10 10 10 10 11 12 12 12 12 11 10 8 8 8 6 4 7 8 10 7 6 4 3 2 2 3 3 4 5 5 7 7 6 6 6 7 7 8 8 9 10 10 10 11 11 11 12 13
31 32 31 31 31 30 28 28 27 25 25 25 25 25 24 23 24 24 24 23 22 22 22 22 21 19 18 18 17 16 15 14 13 11 11 11 11 10 10 10 10 11 12 12 12 12 12 11 9 9 10 9 6 7 8 8 4 2 3 3 2 2 2 3 3 3 4 6 7 7 7 7 7 8 9 10 10 10 10 10 10 10 10 11 12
28 30 30 30 31 30 28 27 27 27 25 25 26 26 26 25 25 25 26 26 25 24 25 24 23 22 20 20 19 18 17 16 15 13 12 12 11 11 11 10 11 11 12 12 12 13 12 12 10 11 12 12 11 9 10 8 6 5 4 4 3 2 2 3 3 3 4 5 6 6 7 7 7 8 10 11 11 10 9 9 9 10 10 11 12
28 29 30 30 31 31 29 28 28 28 26 25 26 27 27 27 27 26 27 28 28 27 27 26 25 24 23 22 21 20 19 18 17 15 14 13 12 12 12 11 11 11 12 12 13 13 13 13 13 14 14 14 15 15 14 11 8 7 5 5 4 3 3 4 4 4 4 4 5 6 7 8 7 8 10 11 11 11 10 10 10 10 10 10 10
28 30 31 31 32 32 31 29 29 29 27 26 27 27 28 28 28 27 28 29 29 28 28 27 26 26 25 24 23 22 21 20 18 17 16 15 14 14 13 11 11 12 12 12 13 13 14 14 15 15 13 14 17 17 16 13 11 9 7 6 5 5 4 4 4 4 4 5 6 7 7 7 8 9 10 11 11 11 12 11 11 10 9 9 9
28 30 31 32 33 33 32 31 30 29 28 27 28 28 28 28 28 28 28 30 31 30 29 29 28 27 26 26 25 24 24 23 20 19 18 17 17 15 14 12 12 13 12 12 13 13 14 15 15 15 14 15 17 18 18 16 13 12 9 7 6 6 6 5 5 5 5 6 6 7 6 7 8 9 9 9 8 9 9 9 9 8 8 8 8
29 30 31 32 33 33 33 32 31 29 29 29 29 29 29 29 29 29 29 30 31 31 31 30 29 28 28 27 27 26 26 24 22 21 20 20 19 17 15 14 13 13 13 12 13 13 15 15 15 16 15 16 17 18 19 16 14 14 11 9 8 7 6 6 6 6 8 7 7 7 7 7 7 8 7 6 6 7 7 8 7 7 7 8 8
28 29 30 32 33 33 33 32 31 31 31 32 31 31 31 31 31 30 29 30 31 32 31 30 30 30 29 29 28 28 27 26 24 23 22 22 20 18 17 16 14 14 13 13 14 14 15 16 16 16 16 18 19 19 19 17 16 14 12 11 10 8 7 7 7 8 8 8 8 8 8 8 7 7 7 6 7 7 8 8 8 8 8 8 8
26 27 28 30 32 33 33 33 33 33 33 33 33 33 33 33 32 32 30 30 31 32 31 30 31 31 30 30 30 30 29 27 27 26 25 23 22 21 18 17 16 16 15 14 15 15 16 16 16 16 17 18 19 19 19 18 17 16 14 14 13 10 9 9 9 8 8 8 7 7 8 8 8 7 7 8 8 8 8 8 8 8 7 7 7
24 25 26 28 30 31 32 33 34 34 34 35 35 35 34 34 33 33 32 31 31 32 32 31 32 32 31 31 31 31 30 30 29 28 26 26 25 23 20 19 19 19 17 16 16 16 17 17 17 17 17 18 18 19 19 19 18 18 16 14 13 11 10 10 10 8 6 6 6 6 7 7 8 9 9 9 9 8 8 9 9 8 8 8 8
22 24 26 27 28 29 30 32 33 35 35 35 35 35 35 34 33 33 32 32 32 33 33 33 33 33 33 32 33 32 32 32 31 30 29 29 28 24 22 22 22 21 19 18 17 17 17 17 18 18 18 18 18 18 19 19 19 18 17 15 14 14 12 11 12 8 4 4 6 7 7 7 9 10 10 9 9 8 9 9 9 9 9 9 9
21 22 23 24 25 26 27 29 31 33 34 35 35 35 35 34 34 34 33 33 33 33 35 36 36 36 35 33 33 33 34 34 33 32 33 32 30 27 26 26 25 23 21 19 18 18 18 18 19 18 19 19 18 18 18 19 19 18 18 17 16 16 14 12 11 9 6 6 7 8 9 9 10 10 9 9 9 10 10 10 9 10 9 9 9
19 20 21 20 21 22 24 26 28 31 32 34 35 35 35 35 35 35 34 34 33 34 36 37 37 36 34 32 32 31 32 34 36 36 36 34 32 31 29 29 27 26 24 22 20 20 19 19 19 19 19 19 18 18 18 18 18 18 18 18 19 19 16 13 12 13 12 10 10 10 11 11 11 11 10 10 10 10 10 10 9 10 9 9 8
17 17 18 17 18 20 22 24 26 28 30 32 33 34 35 36 36 36 36 35 35 36 37 37 39 37 34 31 28 25 28 33 36 36 36 35 35 34 32 31 30 28 27 24 22 21 21 21 20 19 20 20 19 19 19 19 18 19 19 20 22 23 19 16 16 17 16 14 12 12 13 12 12 12 12 12 12 10 10 10 10 10 9 8 8
11 12 12 13 15 18 21 23 25 27 29 30 31 32 33 34 35 36 37 37 37 37 37 38 40 40 39 33 26 24 29 32 31 30 33 34 34 34 33 32 31 30 29 26 24 23 23 22 21 20 20 20 20 19 19 19 19 19 19 20 23 26 25 23 22 21 20 18 14 13 14 14 13 13 13 13 13 11 10 10 10 10 9 8 8
6 7 8 10 12 15 18 20 22 24 26 28 30 30 31 32 33 35 36 36 36 38 39 39 40 41 42 41 36 32 31 29 27 26 27 30 31 32 32 32 31 31 30 28 27 26 25 23 22 21 21 21 20 20 20 20 19 19 19 20 22 25 27 27 25 23 21 19 16 15 16 15 13 13 13 13 12 11 11 11 10 9 9 9 9
3 4 5 7 9 11 14 17 19 22 24 26 28 29 29 30 31 33 34 35 36 38 40 39 41 42 42 43 44 41 35 31 29 26 23 26 29 30 30 30 30 30 28 28 27 27 26 24 23 23 23 22 21 21 21 20 19 19 19 20 21 24 25 26 25 24 22 20 17 17 17 16 14 13 12 12 11 10 10 10 9 8 8 8 9
4 4 4 4 6 8 10 13 16 19 21 24 25 26 27 28 29 31 33 34 36 38 39 39 41 43 43 43 43 44 42 39 37 32 28 27 28 29 29 29 29 29 27 26 27 27 26 25 25 24 24 23 22 22 22 22 21 20 20 20 21 23 24 25 25 24 22 20 18 17 18 17 16 14 12 11 10 9 9 9 8 8 8 8 9
6 6 6 6 5 6 7 9 12 15 18 20 23 24 26 27 28 30 31 33 34 36 38 39 41 42 42 43 43 43 44 43 41 37 34 32 30 31 31 30 31 31 28 27 27 27 27 26 26 25 25 25 23 23 23 23 23 23 22 23 23 23 23 24 24 24 22 20 18 18 18 18 16 14 12 11 10 9 9 9 8 8 8 8 9
7 7 7 7 7 6 6 7 8 10 13 16 19 22 24 26 28 29 30 32 33 34 37 38 39 41 41 43 44 44 44 44 43 40 38 36 35 34 34 33 34 33 31 30 29 29 28 27 27 27 27 26 25 25 25 24 24 24 24 25 25 24 24 24 24 23 22 20 19 18 19 18 15 13 13 12 11 10 9 9 9 8 9 9 10
8 8 8 8 8 7 7 7 7 8 10 13 15 18 20 23 25 28 29 31 32 33 35 37 38 39 41 43 44 45 45 45 44 42 42 41 39 38 37 36 37 36 33 32 30 29 29 28 28 27 27 27 26 26 25 25 25 25 25 26 26 25 25 24 24 24 23 21 20 20 19 18 16 14 14 13 11 10 10 10 10 10 10 11 11
9 9 10 10 10 9 9 9 9 8 9 10 12 14 16 19 22 25 27 29 31 32 34 36 37 38 40 41 43 45 46 46 45 44 44 44 42 42 41 38 38 37 35 34 32 30 30 30 29 28 28 28 27 27 26 26 26 25 26 27 27 26 25 25 24 24 23 22 22 21 20 19 17 16 15 14 13 12 11 11 11 11 12 13 13
12 12 12 12 11 11 10 10 10 10 10 11 11 13 14 17 19 21 24 26 28 30 33 35 36 37 38 39 41 43 45 45 44 45 45 44 43 44 42 40 39 38 35 35 34 33 33 32 31 30 30 29 29 28 28 28 27 26 27 28 27 26 26 25 25 25 24 23 23 23 21 20 18 17 16 15 14 13 13 13 13 13 14 14 14
14 14 14 13 12 12 11 10 10 11 12 12 12 13 14 15 17 19 21 23 25 27 30 33 35 36 36 37 39 42 43 43 44 45 45 45 44 44 42 40 40 39 37 36 35 36 35 34 32 32 31 31 30 30 29 29 28 27 28 28 28 27 26 26 26 25 25 24 24 24 22 21 19 19 18 17 16 15 15 16 15 16 16 16 16
14 14 14 14 13 13 13 13 12 12 12 12 12 13 14 15 17 18 19 20 22 24 27 30 33 35 36 37 38 40 42 43 44 45 45 45 46 45 44 43 40 39 39 38 38 39 37 34 34 35 33 32 32 31 30 29 28 28 28 29 29 28 27 26 26 26 26 25 25 24 23 22 21 20 19 18 18 17 17 17 17 18 18 17 17
14 14 14 14 14 14 14 14 14 14 14 14 13 12 13 15 16 18 19 19 20 23 24 27 30 32 34 36 38 40 41 41 43 44 44 44 44 44 46 46 43 40 39 39 41 42 39 37 38 38 36 34 33 32 31 31 29 29 29 29 30 30 28 27 26 26 26 25 25 25 23 23 22 21 20 19 18 18 18 18 18 19 19 18 17
16 17 18 18 17 17 16 16 15 15 16 16 16 15 15 15 16 17 18 18 20 22 23 25 27 29 32 34 37 39 39 39 41 43 43 43 43 43 44 46 46 44 41 40 43 45 42 41 42 40 39 37 35 34 33 32 30 30 30 29 30 31 29 27 26 27 27 26 26 26 25 24 23 22 21 20 19 19 19 19 20 19 19 18 18
17 18 20 20 21 21 20 20 19 19 18 17 18 18 18 18 18 18 18 18 20 21 22 24 25 26 29 32 35 37 38 38 40 41 42 43 43 42 42 43 45 47 46 43 45 47 44 43 44 42 40 39 37 36 35 34 32 31 30 30 30 31 30 28 27 27 27 27 27 27 26 25 24 23 22 21 20 20 20 21 21 20 19 19 18
14 16 18 20 21 22 23 24 24 24 23 22 21 20 20 20 21 20 20 19 20 22 21 22 24 25 27 30 32 35 36 37 39 40 40 42 43 42 41 41 43 47 48 46 47 49 45 44 44 42 40 40 38 37 36 34 32 32 31 30 30 31 32 30 28 29 29 29 29 28 28 27 26 25 24 23 22 22 22 22 21 21 20 20 20
14 15 16 18 19 21 23 24 25 26 27 27 26 25 24 23 22 23 23 22 22 23 22 22 23 24 26 29 31 32 33 36 38 39 40 41 42 43 43 42 42 43 46 47 50 51 48 46 46 44 42 40 38 39 37 34 33 33 31 30 30 32 33 32 31 31 31 31 31 30 30 29 28 27 26 25 24 24 23 23 23 22 22 21 21
18 18 18 19 20 21 22 23 24 26 27 28 29 30 30 28 27 25 25 25 26 26 25 24 23 23 26 28 30 30 30 33 35 37 38 39 40 42 44 45 45 44 43 45 50 52 49 47 47 46 44 42 41 40 38 36 34 34 33 31 31 32 34 34 33 33 33 33 33 33 32 32 31 30 28 27 26 25 25 25 24 24 23 23 23
22 22 22 22 22 23 24 24 25 25 26 27 28 30 31 32 32 30 28 27 27 28 28 28 26 25 26 28 29 29 28 30 33 34 35 37 38 40 43 45 47 47 45 45 47 48 49 48 47 47 47 46 44 42 40 39 36 35 36 34 32 32 34 35 36 35 35 35 35 35 35 34 33 32 31 29 28 27 26 26 25 25 24 24 24
26 26 26 26 26 26 26 26 27 27 27 28 28 29 30 31 33 33 33 32 30 30 30 30 30 29 29 30 30 29 28 30 32 33 33 34 35 38 41 43 45 48 47 47 47 47 47 46 45 46 47 47 47 45 43 41 39 39 39 37 34 33 34 35 37 37 37 38 38 37 37 36 36 34 33 31 30 29 28 27 26 26 25 25 25
29 29 30 30 30 30 30 30 29 29 29 29 29 29 29 30 31 33 34 35 35 34 33 32 31 31 31 32 32 31 30 31 33 33 32 33 34 35 38 40 42 45 46 47 48 50 49 47 45 44 44 45 47 46 44 43 42 42 41 40 38 36 35 36 37 38 39 39 40 40 39 39 38 37 35 34 32 31 30 29 28 27 27 26 26
32 32 32 32 33 34 34 34 34 33 33 33 33 32 31 31 31 32 33 34 35 37 37 36 34 33 33 33 34 33 32 33 34 34 33 34 33 34 36 37 39 41 43 44 47 49 50 51 50 47 44 44 45 46 46 45 45 44 43 43 42 40 38 38 38 39 40 41 43 44 43 42 40 39 38 36 35 33 32 31 30 28 28 27 27
34 34 35 35 36 37 37 38 38 38 38 38 38 37 36 35 35 34 34 34 34 36 37 39 38 36 35 35 34 34 33 34 35 34 34 34 34 34 35 36 36 37 38 40 43 45 48 51 52 51 49 48 48 48 49 48 47 47 47 47 46 44 42 40 39 40 41 43 45 47 47 45 43 42 40 39 37 36 34 33 31 30 29 28 28
37 38 39 39 40 41 41 42 42 42 42 43 43 42 42 41 40 40 39 38 37 37 37 38 39 40 39 38 36 35 34 35 35 34 33 33 34 35 36 36 35 35 36 38 39 41 45 48 50 52 53 52 51 51 52 50 49 49 50 51 50 48 45 42 41 41 42 45 48 49 49 47 45 43 42 41 40 39 37 35 33 32 30 29 29
41 42 43 44 45 46 46 47 47 47 47 48 48 47 47 46 46 46 45 44 43 42 41 39 39 40 41 41 41 38 37 36 35 34 33 31 32 34 35 36 35 36 37 38 39 40 43 46 49 51 52 52 52 52 53 52 52 54 55 54 53 50 47 45 44 43 43 46 49 50 49 49 48 46 44 44 43 41 39 38 36 34 32 30 30
44 46 47 48 49 50 51 52 52 52 52 53 52 51 50 49 49 49 49 48 48 47 47 46 43 42 41 42 43 42 40 38 36 35 34 32 32 32 34 34 36 37 38 39 40 41 42 45 47 49 50 52 53 54 55 57 59 60 57 55 53 51 49 48 46 46 46 47 49 50 51 51 50 49 48 48 47 44 42 41 39 36 34 32 31
46 47 49 50 52 53 55 56 56 57 57 57 56 55 53 52 51 51 51 51 51 50 50 51 50 49 47 45 44 43 43 42 40 37 36 34 34 33 33 32 33 37 39 40 41 42 43 45 47 47 49 52 55 56 59 61 61 60 58 57 56 54 51 50 50 49 49 49 50 51 51 51 52 52 52 51 49 46 45 44 41 38 35 33 32
47 48 50 52 53 54 55 57 58 59 60 60 59 57 55 54 52 52 52 52 52 52 52 53 54 54 53 51 49 46 45 45 44 41 39 36 35 35 34 31 31 34 38 41 43 43 43 45 47 47 48 53 56 56 58 59 58 59 59 59 57 56 55 55 55 53 52 51 50 50 50 51 53 54 55 53 51 49 47 45 43 40 37 34 33
49 50 52 53 54 54 55 56 58 59 60 61 60 59 57 55 53 52 52 52 52 52 52 53 54 55 56 56 55 53 50 47 46 45 43 40 38 36 35 34 32 32 35 40 44 45 45 46 48 48 50 53 55 54 55 57 57 58 58 58 58 58 59 60 58 57 54 51 49 49 49 50 53 56 57 55 52 50 49 47 44 41 38 36 35
50 51 52 53 54 55 55 56 57 58 59 60 59 58 57 56 55 54 52 51 51 52 52 52 53 55 56 56 57 58 56 53 49 48 47 45 42 39 37 36 35 35 35 37 40 45 47 47 48 51 53 53 53 52 52 53 55 56 57 59 59 59 60 62 62 59 55 51 48 49 50 51 53 57 58 56 53 51 50 48 46 44 41 39 37
49 51 52 53 54 55 56 56 57 59 60 59 59 58 58 58 57 55 52 50 50 51 52 53 53 54 55 55 55 57 59 58 55 52 50 48 46 43 40 39 38 38 37 36 37 41 45 49 51 54 55 53 51 50 49 49 52 55 58 60 60 60 60 61 60 58 56 54 51 50 52 52 53 56 57 55 53 52 52 50 49 47 44 41 39
50 51 52 54 55 56 57 57 58 60 61 61 60 60 59 59 57 54 51 50 51 52 53 54 54 53 53 53 54 55 57 58 58 56 52 50 48 46 44 42 41 40 40 39 38 38 41 45 50 55 56 54 50 48 48 48 50 53 54 56 57 58 58 57 58 58 59 58 55 53 53 53 52 53 55 54 53 53 53 52 50 49 46 43 41
51 52 53 54 55 57 58 58 58 60 62 62 61 60 59 56 53 51 49 50 51 52 54 56 55 54 53 51 51 53 54 56 58 58 55 52 50 49 47 46 44 43 42 42 40 38 38 39 43 48 53 55 53 49 47 48 49 48 48 50 53 55 55 56 58 60 61 61 58 56 55 54 51 51 53 54 54 55 54 53 52 50 48 45 43
52 52 53 54 55 57 58 58 57 58 62 62 60 58 56 51 47 46 47 49 50 52 55 57 56 56 56 54 52 52 53 55 57 58 57 54 51 50 50 48 46 46 45 43 41 40 38 38 39 40 44 50 54 53 49 48 48 46 45 49 54 56 56 56 58 60 61 62 61 58 56 55 53 53 54 55 55 56 55 53 52 51 49 47 45
53 53 53 54 56 56 55 55 54 54 58 60 57 54 53 50 46 45 46 48 51 54 56 57 57 57 58 58 55 53 53 53 54 55 56 55 53 52 52 50 48 48 47 45 43 42 40 39 39 39 39 43 49 53 53 51 50 47 46 51 54 54 55 58 59 59 58 61 62 59 56 56 55 53 53 53 53 55 55 54 52 52 50 49 47
53 54 53 53 55 55 52 50 49 48 50 53 51 48 47 45 42 41 42 44 48 51 52 54 55 56 57 59 57 54 53 51 50 50 52 53 53 53 52 51 50 50 49 46 43 42 41 41 40 40 40 39 41 47 52 54 53 50 50 53 53 52 56 60 59 55 54 58 63 59 55 56 56 54 53 51 50 52 54 54 52 51 51 50 48
Wind_Direction
245 246 248 249 249 250 251 249 245 242 241 240 238 238 238 233 228 232 233 231 229 226 226 229 231 234 235 236 236 238 241 245 248 245 248 256 259 260 260 261 260 262 263 264 266 264 265 264 245 241 219 217 236 167 201 221 218 241 243 243 233 230 225 184 191 207 205 203 190 169 145 162 188 185 180 184 184 185 186 188 194 196 196 193 188
247 249 251 252 251 251 251 251 247 243 242 242 241 240 240 237 232 233 236 234 232 230 230 232 233 235 236 238 238 238 241 243 246 244 243 249 255 256 258 260 260 262 263 263 265 261 258 252 235 227 208 230 253 164 214 248 254 264 258 234 238 224 212 183 208 223 212 202 190 175 171 181 190 184 181 186 188 191 192 194 200 203 204 201 199
249 251 252 253 253 252 252 252 248 244 244 245 243 241 240 240 236 235 239 238 234 232 234 235 235 236 238 238 239 239 240 242 245 245 242 244 249 252 254 258 260 262 264 265 268 266 263 257 243 226 203 217 229 163 205 259 272 265 238 197 220 209 199 190 209 220 201 193 190 180 183 191 191 188 188 187 187 190 192 194 199 204 204 203 202
250 251 252 253 254 254 254 255 251 243 243 245 245 242 241 241 238 235 237 237 234 233 236 237 237 237 238 239 240 240 241 242 244 245 243 245 248 251 253 257 260 262 264 266 267 267 264 261 250 229 204 196 209 187 200 244 252 200 188 183 192 207 194 179 191 195 178 181 182 179 187 194 194 198 199 196 194 193 193 193 196 200 202 204 205
254 253 253 253 255 255 255 257 255 246 243 245 246 245 242 241 240 235 235 235 233 233 235 237 237 237 237 239 241 241 242 243 245 247 246 249 251 254 256 257 260 261 263 264 263 262 257 254 242 228 217 199 202 209 200 209 216 199 190 189 190 205 185 168 173 171 166 169 174 185 196 198 197 204 206 205 205 201 197 197 198 202 204 206 209
257 255 254 254 255 256 256 259 259 251 245 246 248 248 246 244 242 238 236 236 236 235 237 238 238 238 238 239 241 242 243 245 246 249 250 252 253 255 258 259 261 261 262 262 260 259 255 250 240 233 233 216 202 205 202 197 205 205 196 194 193 195 184 170 165 163 163 162 175 190 200 203 201 207 210 209 209 204 198 198 199 199 202 206 209
259 258 257 256 256 257 258 262 262 255 251 250 250 251 249 246 244 241 237 237 238 237 238 240 240 240 241 241 243 243 245 247 247 248 251 253 254 255 257 258 260 261 261 262 260 259 255 250 245 239 235 226 211 208 208 203 204 206 197 197 199 191 184 178 172 171 172 176 189 199 203 207 209 213 216 216 216 213 208 207 207 203 202 204 207
259 259 258 257 258 259 261 264 262 258 257 257 254 253 252 249 247 243 240 239 240 240 240 240 241 241 241 242 244 245 247 248 247 248 251 253 255 255 256 255 257 262 264 265 263 260 258 251 247 240 229 225 222 218 215 211 212 218 209 198 199 194 187 184 180 185 190 190 196 204 208 210 217 223 225 227 229 228 222 219 218 214 212 212 213
258 259 259 258 259 260 262 264 262 261 263 262 258 256 254 252 250 246 243 240 241 242 243 243 242 242 242 243 244 246 247 249 248 249 251 253 255 256 256 255 257 264 267 267 265 262 259 254 248 242 230 224 227 227 226 222 221 227 222 205 202 197 191 186 183 202 212 210 210 215 216 218 225 230 231 232 234 234 230 227 226 225 226 228 229
257 259 260 259 260 261 263 264 262 263 264 263 260 258 255 254 252 250 246 243 241 243 244 245 245 244 244 244 245 246 247 249 250 251 252 253 256 256 257 258 261 265 267 266 265 264 261 256 251 246 236 227 228 230 233 235 234 234 227 220 219 205 198 203 199 209 220 220 222 225 225 228 233 237 235 230 229 230 232 234 235 236 237 238 238
257 259 260 260 261 262 263 263 263 263 263 261 259 257 256 255 254 253 250 246 244 243 243 243 245 245 244 244 245 246 247 249 250 251 252 254 256 257 257 261 264 264 265 265 265 266 263 259 253 248 241 234 232 231 233 237 239 237 229 230 235 217 206 221 221 221 230 235 239 242 241 238 237 239 237 233 230 228 229 233 236 238 239 240 240
256 258 259 260 262 263 264 264 264 262 261 260 259 260 260 259 258 256 252 248 245 242 239 239 241 243 243 244 245 246 247 248 249 250 252 254 255 256 257 259 262 263 263 263 264 266 264 260 254 249 244 238 235 233 233 235 236 236 231 231 233 216 210 232 242 237 240 255 263 266 262 248 242 245 246 245 241 233 230 231 234 236 237 237 240
254 255 257 260 262 263 264 264 263 262 261 261 263 263 263 262 261 258 254 251 247 243 240 238 237 238 239 241 244 246 247 247 248 250 251 253 253 254 255 256 258 260 261 261 262 263 262 259 253 248 245 241 237 234 234 235 235 235 234 229 221 213 215 235 249 245 236 269 282 284 277 257 247 251 253 252 246 238 235 235 235 234 235 236 238
256 257 258 260 261 261 262 262 263 263 263 263 262 262 261 261 259 257 254 252 249 246 243 238 236 238 239 240 240 242 244 246 248 250 250 250 252 252 252 254 255 257 257 258 260 260 259 258 254 249 246 243 239 237 236 237 237 235 234 228 219 220 225 232 249 261 263 279 288 288 283 268 258 256 253 249 243 239 238 237 237 235 234 234 237
260 258 255 253 252 255 258 259 261 263 263 263 261 260 260 260 259 258 256 253 249 246 244 242 240 239 237 237 238 240 243 245 246 247 249 250 251 250 251 253 254 255 255 255 257 258 259 258 256 251 247 244 241 239 238 238 239 238 235 228 220 221 221 223 247 271 278 284 289 288 284 276 270 265 257 250 243 240 239 235 234 235 234 232 236
253 251 247 244 243 246 251 254 257 260 262 263 262 262 262 261 261 260 258 253 249 247 246 244 242 240 234 230 233 236 240 244 246 246 247 248 249 249 250 252 253 254 253 254 255 257 258 258 256 251 247 245 241 239 238 238 238 238 236 230 224 224 224 228 250 270 278 281 284 286 283 278 275 273 266 257 248 241 238 235 233 234 235 233 237
240 238 235 235 235 238 243 247 251 255 258 260 261 263 263 263 263 261 259 257 254 252 249 246 245 244 240 234 230 233 240 245 247 246 245 246 248 248 249 251 252 253 253 252 251 252 253 253 253 250 247 245 242 239 239 238 238 238 238 233 229 231 236 244 256 266 273 276 278 281 280 276 275 276 272 263 257 247 239 241 242 241 241 239 240
241 233 228 226 228 230 234 239 245 249 254 258 260 262 262 262 263 261 260 260 259 255 251 250 249 246 243 241 241 244 248 248 244 242 243 244 245 246 247 248 250 251 251 250 248 249 249 248 248 246 244 245 244 241 239 240 240 240 240 237 234 235 241 249 255 262 267 270 274 277 275 272 270 272 269 263 261 255 250 253 256 256 254 252 251
297 270 245 232 227 225 228 234 239 244 249 254 257 260 261 262 263 263 262 260 259 256 254 253 251 248 246 245 245 245 248 249 245 242 242 242 243 244 245 246 248 249 249 248 247 247 247 246 244 243 243 245 246 243 240 240 242 242 242 241 239 239 242 248 253 258 262 265 269 270 269 268 267 266 263 257 255 253 254 260 264 266 265 264 264
352 332 306 275 251 236 232 232 234 239 245 251 255 257 259 260 261 263 263 261 258 257 258 256 253 253 252 250 247 245 245 247 248 248 248 249 249 246 245 245 246 246 247 246 246 246 245 244 243 243 244 245 246 244 241 239 241 243 244 244 243 243 244 248 252 256 259 262 263 262 263 264 265 265 261 252 247 243 245 253 258 262 265 267 269
12 359 346 333 309 280 260 249 242 239 241 248 252 255 257 258 259 261 262 262 260 259 259 258 256 257 257 254 252 249 245 244 245 247 249 250 251 250 249 246 244 246 247 247 247 247 245 241 240 242 243 244 245 245 242 240 240 242 244 245 245 245 247 249 252 254 257 258 257 256 257 258 260 261 258 250 245 239 240 247 251 256 264 270 273
3 1 350 343 336 324 305 285 270 257 249 248 249 251 254 256 258 260 262 262 262 261 260 260 260 259 258 257 255 252 248 244 242 243 245 248 249 251 253 251 251 254 255 253 252 250 246 241 240 240 241 243 246 246 244 241 241 242 244 245 244 245 247 248 250 252 253 253 252 250 250 252 251 251 252 248 244 242 245 251 257 262 269 274 278
348 349 346 343 340 334 327 315 301 285 271 261 254 251 250 252 255 258 260 261 261 261 261 261 261 260 258 257 256 255 253 251 249 248 248 248 249 251 253 255 257 259 259 258 255 250 246 243 242 241 241 243 245 246 246 244 242 242 244 245 243 242 244 246 247 248 248 247 246 244 244 245 244 243 245 245 244 244 248 254 262 268 272 275 277
357 351 348 348 346 340 331 323 316 304 289 275 266 260 255 252 251 252 255 257 258 260 260 260 260 260 259 258 258 257 256 256 256 254 253 253 254 255 256 257 258 259 260 258 255 250 246 245 244 243 241 241 243 244 245 245 244 242 244 244 242 240 242 244 244 244 244 242 241 241 240 240 239 238 240 241 243 246 249 254 260 265 268 270 272
18 11 5 360 355 351 343 332 323 314 301 287 274 266 261 257 253 251 251 252 255 257 258 259 259 260 260 260 259 259 258 257 256 255 255 255 255 255 257 257 258 260 260 257 255 252 248 246 246 244 241 240 241 243 244 245 245 244 244 244 241 239 240 241 241 241 240 238 238 238 237 236 235 236 238 240 243 247 251 256 258 261 263 265 267
18 13 10 6 1 357 353 345 336 324 312 300 287 275 267 262 259 256 254 252 253 255 257 258 258 259 260 260 259 259 259 259 257 256 255 253 253 253 255 256 257 258 257 255 253 250 248 249 249 245 242 241 240 242 243 245 246 246 245 245 242 239 238 239 239 239 237 234 234 234 233 233 233 235 238 242 246 251 254 259 260 261 262 262 263
10 6 3 0 357 354 351 348 343 334 324 313 300 288 277 270 266 262 259 255 253 253 256 257 258 258 258 258 258 258 258 258 257 256 256 255 254 255 255 255 255 256 255 254 251 249 250 251 251 248 246 244 243 243 244 246 247 247 246 245 244 240 237 237 238 237 234 232 231 231 229 228 230 233 238 243 249 254 257 260 262 263 264 264 264
359 358 355 353 351 349 346 343 340 336 331 324 314 303 288 279 274 270 266 261 257 255 255 256 257 258 258 258 258 257 256 257 257 257 256 256 256 256 255 254 254 255 255 253 251 251 251 250 250 251 250 247 246 245 244 245 246 247 246 246 246 243 238 236 236 235 233 231 230 229 226 226 228 232 237 242 246 250 253 256 258 261 263 263 263
353 352 351 350 349 346 344 341 338 335 332 328 322 317 307 295 286 279 273 268 263 260 258 257 257 257 258 258 258 257 255 255 255 255 256 256 256 256 255 255 254 253 253 253 254 254 254 253 254 256 255 252 249 246 244 245 246 246 247 247 247 246 242 237 236 234 232 230 229 227 226 226 229 233 237 241 244 246 248 251 253 255 257 257 257
348 347 346 346 345 345 344 343 341 338 334 331 326 321 317 311 303 293 284 276 269 266 262 261 259 258 259 259 258 258 256 254 252 252 253 254 255 255 255 255 255 253 252 253 257 258 258 257 258 259 260 259 255 251 248 247 247 247 248 248 248 248 245 239 237 235 232 230 228 227 225 226 229 233 237 239 241 244 245 248 250 251 252 252 250
345 342 340 340 340 341 341 341 340 339 337 335 331 326 322 318 314 308 300 289 278 272 268 265 263 261 260 259 258 258 257 256 253 250 250 250 251 252 253 253 254 254 254 253 256 259 258 258 260 261 261 262 259 255 251 249 248 247 248 248 248 248 245 241 238 235 232 230 228 226 225 226 229 232 234 236 238 241 243 245 247 247 246 246 244
348 345 342 339 337 337 337 337 336 336 335 335 333 331 327 323 319 315 311 304 295 287 279 272 267 264 263 262 260 259 259 258 255 252 249 247 248 249 250 251 251 253 254 252 253 257 258 259 262 263 262 262 259 255 252 249 247 246 247 247 246 245 244 242 239 235 232 230 229 226 225 226 228 230 232 234 235 237 239 241 243 243 242 241 240
344 343 342 340 338 337 335 334 333 332 331 330 330 329 328 326 323 319 315 311 306 301 296 288 278 271 268 266 264 262 261 260 258 255 251 248 247 247 247 249 250 250 251 251 253 255 257 257 259 260 261 259 256 253 250 247 245 246 246 245 242 242 244 244 240 236 233 230 229 227 225 226 228 230 232 233 234 235 236 238 240 240 240 239 238
338 337 336 334 334 333 332 332 330 329 328 326 325 324 323 323 322 321 319 315 310 306 303 299 294 287 280 273 269 266 264 263 261 259 256 251 248 246 245 246 248 248 248 249 252 254 255 255 255 256 257 256 254 251 249 248 247 247 247 246 242 241 242 243 241 238 234 231 229 228 227 226 228 230 232 233 234 235 236 237 238 238 238 238 237
334 333 331 330 329 328 327 326 324 324 323 322 321 320 319 318 317 317 317 315 313 309 305 302 301 298 294 287 280 275 271 267 264 262 260 256 251 248 246 245 246 247 247 248 250 253 255 255 254 253 253 254 253 252 250 250 250 248 248 247 245 242 240 241 241 238 235 232 230 229 228 227 228 230 232 234 235 236 237 237 237 237 238 237 237
330 330 328 327 326 324 323 321 320 318 317 316 316 315 315 314 312 311 311 310 309 309 307 305 303 301 299 295 292 289 285 277 270 266 264 261 257 252 249 247 246 246 247 248 249 251 254 256 254 252 251 251 253 253 251 249 249 248 247 246 245 242 239 239 240 239 236 233 231 230 229 228 228 230 232 234 235 236 237 238 238 238 238 238 238
326 326 326 325 324 323 321 320 319 318 316 314 312 311 311 309 308 306 305 304 303 303 303 303 302 300 298 297 296 296 294 289 283 276 270 266 262 259 254 251 248 248 249 249 249 250 253 255 254 253 252 250 251 252 250 249 249 248 245 243 242 241 238 237 237 237 236 235 232 231 230 229 228 229 231 233 234 236 237 238 238 238 238 238 238
324 324 324 323 321 320 319 319 318 317 316 314 312 311 310 308 306 304 301 299 297 296 296 297 298 297 296 295 294 294 294 293 291 289 283 275 269 264 260 257 255 253 252 251 250 251 252 253 254 253 252 250 249 250 250 250 249 248 246 242 240 238 236 235 235 235 234 235 234 232 230 228 227 228 230 232 233 235 236 237 237 238 238 238 239
322 322 321 320 319 317 316 316 315 314 313 312 311 310 309 307 305 303 301 299 297 294 291 291 292 293 293 292 292 291 291 291 291 292 291 286 279 271 266 263 262 259 256 253 252 253 252 253 253 252 251 251 250 250 251 250 248 246 245 242 239 236 235 234 234 233 233 233 235 234 231 229 228 229 230 231 233 234 235 236 236 237 237 238 239
320 320 319 318 316 315 314 313 312 311 310 309 308 307 306 305 303 302 300 298 297 295 292 289 287 287 288 289 289 288 288 287 288 289 289 289 285 280 273 268 265 263 260 256 254 253 253 253 252 251 251 250 248 247 247 245 242 240 239 238 239 239 238 237 235 233 233 233 234 234 233 230 228 228 229 230 232 232 233 234 235 235 236 237 238
318 317 316 315 314 313 312 311 310 309 307 306 305 305 303 302 300 298 297 295 294 293 292 290 288 284 282 283 284 286 286 285 285 285 286 286 285 283 280 273 266 263 261 258 256 253 252 252 251 250 249 248 246 244 242 241 241 242 240 239 239 240 239 238 237 234 233 233 233 234 233 230 228 228 229 229 230 231 232 233 234 235 235 236 237
315 314 313 312 312 311 310 309 308 306 305 304 303 302 301 299 298 296 295 293 291 290 289 288 287 285 284 281 280 280 282 283 283 282 282 283 283 282 281 276 269 264 260 258 256 253 251 250 249 248 247 246 245 243 242 242 243 243 241 240 239 238 236 235 235 234 233 232 232 233 233 232 230 230 230 230 230 231 232 233 234 235 236 236 237
312 311 310 309 308 308 307 306 305 304 303 302 301 300 299 298 297 296 295 294 292 290 288 286 285 284 284 283 281 279 278 279 280 281 280 280 280 280 281 277 271 265 260 257 255 252 250 249 248 247 246 246 246 244 242 243 242 241 242 241 239 237 235 234 234 234 233 231 231 233 234 233 231 231 232 232 231 231 233 234 235 236 236 235 235
309 308 307 306 305 304 303 302 301 300 299 299 298 298 297 297 296 295 295 294 293 291 289 287 286 285 283 283 282 280 278 277 277 279 279 278 277 277 278 277 274 267 261 257 254 252 250 248 248 246 244 246 247 245 243 241 240 240 241 240 238 238 237 237 237 237 236 233 231 233 236 235 233 232 233 232 231 232 233 235 235 236 234 233 234
307 306 306 304 303 302 301 299 298 297 296 295 295 295 295 295 295 295 294 292 291 289 287 286 285 284 283 283 282 281 279 277 276 276 277 277 277 276 275 274 273 270 265 259 255 252 250 248 248 247 245 245 246 246 245 243 241 239 238 238 239 237 236 238 239 240 240 237 234 234 236 236 234 234 233 232 231 232 233 234 234 234 233 232 233
305 304 304 303 301 300 299 298 297 295 294 294 294 293 293 293 293 294 293 291 288 286 284 283 282 282 282 281 280 280 279 278 277 275 274 274 274 274 273 272 270 270 269 265 259 254 250 246 246 248 247 246 246 248 248 246 243 241 240 240 240 239 238 241 244 243 242 241 238 236 236 236 234 234 234 233 231 231 232 233 233 233 233 232 232
304 303 302 301 300 299 298 297 295 294 294 294 293 293 292 292 292 292 291 289 286 284 282 280 279 279 279 278 278 278 277 277 276 275 273 272 272 272 271 270 270 268 267 266 264 260 254 249 248 250 250 248 247 248 250 250 249 247 246 246 246 246 246 246 245 242 241 240 237 234 236 237 235 235 236 235 231 231 231 231 231 232 232 232 232
303 302 300 299 298 297 296 295 294 293 293 293 292 292 292 293 293 293 291 289 286 283 281 280 278 277 276 275 275 275 275 274 274 274 273 271 270 270 269 268 269 268 266 266 266 265 262 256 253 254 254 251 247 245 247 250 251 251 249 246 244 244 242 241 240 239 238 238 235 233 233 235 236 237 237 234 231 230 230 229 229 230 231 231 231
303 302 300 299 297 296 295 295 294 293 293 293 293 293 293 294 294 292 290 287 285 282 280 279 278 277 275 274 273 273 273 272 271 271 271 270 268 267 267 266 266 266 266 265 266 266 265 262 259 257 256 253 249 245 243 245 249 250 246 240 238 236 234 233 234 235 236 236 235 232 230 234 237 237 234 232 230 229 229 228 227 228 229 230 231
304 303 301 300 298 297 296 296 296 295 295 294 295 294 293 292 291 289 287 285 283 281 280 279 278 278 276 274 272 270 269 269 269 268 268 267 266 264 264 264 263 263 264 265 265 266 265 265 264 260 257 253 249 246 242 241 243 246 243 240 239 235 231 231 234 235 236 237 236 232 229 232 235 232 229 228 227 227 227 226 225 226 226 228 228
306 305 304 302 301 300 300 300 300 299 298 297 297 298 297 295 294 292 289 287 284 283 283 283 282 281 278 275 273 270 267 267 268 267 265 264 263 262 262 262 261 261 262 263 264 265 266 265 265 264 261 257 252 247 243 239 238 240 241 242 240 234 232 234 234 232 232 235 236 232 228 231 233 229 226 225 222 222 224 222 222 223 224 226 227